FENGYUN 1C DEB, 29968

Orbit data source: Space-Track

FENGYUN 1C DEB, 29968 is space debris in SSO originally from a launch on Mon, 10 May 1999 UTC launched from the Taiyaun Space Center, China (TSC). Fengyun 1C debris stems from the Chinese weather satellite Fengyun-1C, which was intentionally destroyed by a Chinese anti-satellite missile in 2007. This event dramatically increased the amount of space debris, with thousands of trackable fragments posing hazards to satellites and human spaceflight. The Fengyun 1C debris cloud has become a focal point in discussions about space sustainability and the need for international regulations to prevent the creation of new debris.

Loading next visibility...
Identifier
29968, 1999-025KS
Orbit
SSO
Country
Flag of CNCN / PRC
Related business
Manufacturer
Unknown
Mission
Spacecraft
Bus & Motor
Unknown
Mass
Unknown
Launch date (UTC)
1999-05-10 (27 years ago)
Launch vehicle
Unknown
Launch site
Taiyaun Space Center, China (TSC)
Object type
Payload
Rocket body
Debris
Shape & HBR
Unknown shape, 0.2 m
Radar Cross Section
Small (<0.1 m²)

Expand to show TLE details & history
Last TLE update: 15 hours ago

TLE from 15 hours ago
0 FENGYUN 1C DEB
1 29968U 99025KS  26070.97777860  .00000430  00000-0  27086-3 0  9998
2 29968  98.8138  63.4760 0091068 102.8869 320.7233 14.07326131983049
Epoch: 2026-03-11T23:28Z
TLE epoch observation values (Epoch: 2026-03-11T23:28:00.071Z)
Latitude
61.74229°
Longitude
-114.83394°
Altitude
828.212 km
Speed
7.471 km/s
True Right ascension
03h 07m 12s
True Declination
61° 36' 00"
Sunlit
Object was in daylight at epoch
Visualization orbit readout
Latitude
Unknown
Longitude
Unknown
Altitude
Unknown
Speed
Unknown
Apparent Right ascension
Unknown
Apparent Declination
Unknown
Sunlit
N/A
Visualization observer readout
Local Sidereal Time
19:05:40
Azimuth
Unknown
Elevation
Unknown
Doppler factor
Unknown
Orbital elements
Apogee altitude
931.685 km
Perigee altitude
799.748 km
Semi-major axis
7,243.853 km
Eccentricity
0.00911
Inclination
98.8138°
RAAN
63.476°
Arg. of periapsis
102.8869°
True anomaly
320.0568°
Mean anomaly
320.7233°
Eccentric anomaly
320.39064°
Mean motion
3.52037 °/min
Orbital period
102.26 mins
BSTAR
0.00027086
Loading maneuver chart data...
Computing Atmospheric mass density...

Documentation

Showing up to 5 results
|